Regional Weather Roundup
Issued by NWS Boston, MA

Home | Current Version | Previous Version | Text Only | Print | Product List | Glossary On
Versions: 1 2 3 4 5 6 7 8 9 10 11 12 13 14 15 16 17 18 19 20 21 22 23 24 25 26 27 28
000
ASUS41 KBOX 221510
RWRBOX

REGIONAL WEATHER ROUNDUP
NATIONAL WEATHER SERVICE BOSTON/NORTON MA
1100 AM EDT SUN APR 22 2018

NOTE:  "FAIR" INDICATES FEW OR NO CLOUDS BELOW 12,000 FEET WITH NO
SIGNIFICANT WEATHER AND/OR OBSTRUCTIONS TO VISIBILITY.

MAZALL-221600-
EASTERN MASSACHUSETTS

CITY           SKY/WX    TMP DP  RH WIND       PRES   REMARKS
BOSTON         FAIR      54  17  23 NW12G18   30.35S
BEVERLY        FAIR      55  18  23 NW14      30.33F
LAWRENCE       FAIR      56  17  21 NW15G22   30.35F
BEDFORD        FAIR      56  19  23 NW9       30.34F
BLUE HILL        N/A     53  17  24 VRB6G17   30.32F
NORWOOD        FAIR      57  19  22 NW9G16    30.35F
MARSHFIELD     FAIR      55  18  22 VRB7G14   30.34S
PLYMOUTH       FAIR      56  20  24 W10       30.34F
TAUNTON        FAIR      57  17  21 NW10G20   30.34F
NEW BEDFORD    FAIR      57  19  22 N10G16    30.34F
$$

MAZALL-221600-
CAPE COD AND THE ISLANDS

CITY           SKY/WX    TMP DP  RH WIND       PRES   REMARKS
FALMOUTH       FAIR      55  18  22 NW13G18   30.35
HYANNIS        FAIR      55  25  31 N9        30.33S
CHATHAM        FAIR      53  25  33 VRB7      30.35S
PROVINCETOWN   FAIR      49  34  56 NW10      30.35S
NANTUCKET      FAIR      53  22  29 NW8       30.36R
MARTHAS VNYRD  FAIR      56  18  22 NW13      30.35S
$$

MAZALL-221600-
CENTRAL AND WESTERN MASSACHUSETTS

CITY           SKY/WX    TMP DP  RH WIND       PRES   REMARKS
WORCESTER      FAIR      50  17  27 W13G20    30.34F
FITCHBURG      FAIR      57  17  21 W15       30.35F
ORANGE         FAIR      53  17  24 MISG      30.37F
SPRINGFIELD    FAIR      55  16  21 NW6       30.36
WESTFIELD      FAIR      57  12  17 N15G25    30.36F
NORTH ADAMS    FAIR      51  18  27 N8        30.39S
PITTSFIELD     FAIR      52  13  21 NW9G18    30.36F
$$

RIZALL-221600-
RHODE ISLAND

CITY           SKY/WX    TMP DP  RH WIND       PRES   REMARKS
PROVIDENCE     FAIR      57  18  21 VRB3      30.36F
NEWPORT        FAIR      55  21  26 VRB6      30.36S
BLOCK ISLAND   FAIR      53  26  35 W7        30.38S
SMITHFIELD     FAIR      54  16  22 MISG      30.35F
WESTERLY       FAIR      58  18  21 VRB6      30.37F
$$

CTZALL-221600-
CONNECTICUT

CITY           SKY/WX    TMP DP  RH WIND       PRES   REMARKS
BRADLEY INTL   FAIR      57  15  19 N12G20    30.37F
HARTFORD       FAIR      55  22  27 VRB3      30.38F
BRIDGEPORT     FAIR      58  13  17 N9G17     30.40S
DANBURY        FAIR      55  17  22 N12G18    30.41S
GROTON         FAIR      57  17  21 NW8G18    30.37S
NEW HAVEN      FAIR      57  16  20 NW12      30.39S
CHESTER        FAIR      57  10  15 NW10G22   30.38S
MERIDEN        FAIR      57  17  21 N8        30.38F
WILLIMANTIC    FAIR      56  17  21 N14       30.37F
OXFORD         FAIR      53  18  25 NW12      30.39S
$$

MEZ002-015-021-024-NHZ003-005-008-011-012-014-VTZ005-008-221600-
NORTHERN NEW ENGLAND

CITY           SKY/WX    TMP DP  RH WIND       PRES   REMARKS
PORTLAND ME    FAIR      52  17  25 NW17G23   30.32F
BANGOR ME      FAIR      50  15  24 NW15G25   30.28S
CONCORD NH     FAIR      53  17  24 NW13G18   30.35S
MANCHESTER NH  FAIR      56  13  18 N14G22    30.34S
NASHUA NH      FAIR      53  17  24 NW13G20   30.35F
PORTSMOUTH NH  SUNNY     54  17  23 NW12      30.31S
JAFFREY NH     FAIR      50  15  24 N9G18     30.35S
KEENE NH       FAIR      54  18  24 NW9G21    30.36F
BURLINGTON VT  FAIR      50  17  27 NW9       30.41S
MT. WASHINGTON SUNNY     18   3  53 NW37        N/A  WCI  -4
$$

NYZ052-076-221600-
EASTERN NEW YORK

CITY           SKY/WX    TMP DP  RH WIND       PRES   REMARKS
ALBANY         FAIR      52  18  26 CALM      30.41F
NEW YORK CITY  FAIR      57  22  25 N5        30.41S
$$

ANZALL-221600-
MARINE OBSERVATIONS

STATION/POSITION TIME  TEMP    WIND        PRES    VSBY  WAVE
                       AIR SEA DIR/SP/G                  HT/PER
                 (UTC) (F)     (DEG/KT/KT) (MB)    (MI)  (FT/S)
BOSTON BUOY      1450   46 44  270/  8/  8 1026.7F         1/ 2
BUZZARDS BAY     1400   47     290/  6/  7 1028.9F
NANTUCKET SOUND  1350   44 43  260/  4/  6 1027.9          1
MASS BAY-STELLWA 1404   44 42              1026.3R         1/ 2
ISLE OF SHOALS   1500   49     320/  9/ 10 1026.8F
S OF BLOCK IS    1443      42                N/A           2/ 5
$$

......................KEY.........................
  SKY/WX - SKY CONDITION/PRESENT WEATHER
  TMP    - TEMPERATURE IN FAHRENHEIT
  DWPT   - DEWPOINT IN FAHRENHEIT
  RH     - RELATIVE HUMIDITY IN PERCENT
  WIND   - DIRECTION AND SPEED IN MPH
  PRES   - MEAN SEA LEVEL PRESSURE IN INCHES OF HG
  WCI    - WIND CHILL INDEX
  VSB    - VISIBILITY IN MILES
  HX     - HEAT INDEX
  TC     - TEMPERATURE IN CELSIUS
  VRB    - VARIABLE WIND DIRECTION
  N/A    - NOT AVAILABLE




USA.gov is the U.S. government's official web portal to all federal, state and local government web resources and services.